DW0501 Weather Reports


time (UTC)temp
F
wind
direction
speed
knots
gust
knots
rain 1hr
in
rain 24hr
in
rain mn
in
humidity
%
barometer
mb
20260504100532 46 282 0.0 0.0 0.00 0.00 0.00 82 1014.0
20260504081534 45 282 0.0 0.0 0.00 0.00 0.00 83 1014.5
20260504081024 45 282 0.0 0.0 0.00 0.00 0.00 83 1014.5
20260504080524 45 282 0.0 0.0 0.00 0.00 0.00 83 1014.4
20260504050510 42 282 0.0 0.0 0.00 0.00 0.00 80 1014.8
20260504050010 42 282 0.0 0.0 0.00 0.00 0.00 80 1014.8
20260504045509 42 282 0.0 0.0 0.00 0.00 0.00 80 1014.8
20260504045010 42 282 0.0 0.0 0.00 0.00 0.00 79 1014.8
20260504044509 42 282 0.0 0.0 0.00 0.00 0.00 79 1014.8
20260504044008 42 282 0.0 0.0 0.00 0.00 0.00 79 1014.8
20260504043508 42 282 0.0 0.0 0.00 0.00 0.00 79 1014.7
20260504043009 42 282 0.0 0.0 0.00 0.00 0.00 78 1014.7
20260504042507 42 282 0.0 0.0 0.00 0.00 0.00 78 1014.7
20260504042006 42 282 0.0 0.0 0.00 0.00 0.00 78 1014.8
20260504041506 42 282 0.0 0.0 0.00 0.00 0.00 78 1014.8
20260504041006 42 282 0.0 0.0 0.00 0.00 0.00 77 1014.8
20260504040505 42 282 0.0 0.0 0.00 0.00 0.00 77 1014.8
20260504040006 43 282 0.0 0.0 0.00 0.00 0.00 77 1014.8
20260504035504 43 282 0.0 0.0 0.00 0.00 0.00 76 1014.8
20260504035005 43 282 0.0 0.0 0.00 0.00 0.00 76 1014.6
20260504034508 43 282 0.0 0.0 0.00 0.00 0.00 75 1014.6
20260504034003 43 282 0.0 0.0 0.00 0.00 0.00 75 1014.6
20260504033503 43 282 0.0 0.0 0.00 0.00 0.00 74 1014.4
20260504033012 44 282 0.0 0.0 0.00 0.00 0.00 73 1014.4
20260504032504 44 282 0.0 0.0 0.00 0.00 0.00 73 1014.4
20260504032004 44 282 0.0 0.0 0.00 0.00 0.00 73 1014.3
20260504031506 44 282 0.0 0.0 0.00 0.00 0.00 72 1014.3
20260504031005 44 282 0.0 0.0 0.00 0.00 0.00 72 1014.3
20260504030502 45 282 0.0 0.0 0.00 0.00 0.00 71 1014.2
20260504030004 45 282 0.0 0.0 0.00 0.00 0.00 71 1014.2
20260504025502 45 282 0.0 0.0 0.00 0.00 0.00 71 1014.2
20260504025002 45 282 0.0 0.0 0.00 0.00 0.00 70 1014.2
20260504024508 45 282 0.0 0.0 0.00 0.00 0.00 70 1014.2
20260504024005 45 282 0.0 0.0 0.00 0.00 0.00 69 1014.2
20260504023502 46 282 0.0 0.0 0.00 0.00 0.00 68 1014.1
20260504023002 46 282 0.0 0.0 0.00 0.00 0.00 68 1014.1
20260504022502 46 282 0.0 0.0 0.00 0.00 0.00 67 1014.1
20260504022005 47 282 0.0 0.0 0.00 0.00 0.00 67 1014.1
20260504021501 47 282 0.0 0.0 0.00 0.00 0.00 66 1014.1
20260504021001 47 282 0.0 0.0 0.00 0.00 0.00 64 1014.1
20260504020501 47 282 0.0 0.0 0.00 0.00 0.00 64 1013.9
20260504020002 48 282 0.0 0.0 0.00 0.00 0.00 63 1013.9
20260504015600 48 282 0.0 0.0 0.00 0.00 0.00 63 1013.9
20260504015100 48 282 0.0 0.0 0.00 0.00 0.00 62 1013.9
20260504014601 48 282 0.0 0.0 0.00 0.00 0.00 61 1014.0
20260504014059 49 282 0.0 0.0 0.00 0.00 0.00 61 1014.0
20260504013601 49 282 0.0 0.0 0.00 0.00 0.00 59 1014.0
20260504013112 49 282 0.0 0.0 0.00 0.00 0.00 59 1013.8
20260504012600 49 282 0.0 0.0 0.00 0.00 0.00 58 1013.8
20260504012103 50 282 0.0 0.0 0.00 0.00 0.00 58 1013.8
20260504011559 50 282 0.0 0.0 0.00 0.00 0.00 56 1013.7
20260504011101 50 282 0.0 0.0 0.00 0.00 0.00 56 1013.7
20260504010559 51 282 0.0 0.0 0.00 0.00 0.00 55 1013.7
20260504005558 52 282 0.0 0.0 0.00 0.00 0.00 53 1013.7
20260504005058 52 282 0.0 0.0 0.00 0.00 0.00 52 1013.4
20260504004621 53 282 0.0 0.0 0.00 0.00 0.00 50 1013.4
20260504004057 53 282 0.0 0.0 0.00 0.00 0.00 49 1013.4
20260504003557 53 282 0.0 0.0 0.00 0.00 0.00 48 1013.3
20260504003101 54 282 0.0 0.0 0.00 0.00 0.00 47 1013.3
20260504002557 55 282 0.0 0.0 0.00 0.00 0.00 46 1013.3
20260504002059 55 282 0.0 0.0 0.00 0.00 0.00 44 1013.2
20260504001604 56 282 0.0 0.0 0.00 0.00 0.00 43 1013.2
20260504001100 56 282 0.0 0.0 0.00 0.00 0.00 42 1013.2
20260504000556 57 282 0.0 0.0 0.00 0.00 0.00 41 1013.1
20260504000056 57 282 0.0 0.0 0.00 0.00 0.00 40 1013.1
20260503235556 58 282 0.0 0.0 0.00 0.00 0.00 39 1013.1
20260503235100 58 282 0.0 0.0 0.00 0.00 0.00 38 1013.0
20260503234556 59 282 0.0 0.0 0.00 0.00 0.00 36 1013.0
20260503234056 59 282 0.0 0.0 0.00 0.00 0.00 36 1013.0
20260503233555 60 282 0.0 0.0 0.00 0.00 0.00 34 1012.8
20260503233056 60 282 0.0 0.0 0.00 0.00 0.00 31 1012.8
20260503232555 61 284 0.0 0.0 0.00 0.00 0.00 30 1012.8
20260503232058 61 257 0.0 0.0 0.00 0.00 0.00 30 1012.8
20260503231557 61 256 0.0 0.0 0.00 0.00 0.00 29 1012.8
20260503231057 61 256 0.0 0.0 0.00 0.00 0.00 30 1012.8
20260503230556 61 256 0.0 0.0 0.00 0.00 0.00 29 1012.7
20260503230054 62 256 0.0 0.0 0.00 0.00 0.00 29 1012.7
20260503225554 62 256 0.0 0.0 0.00 0.00 0.00 27 1012.7
20260503225054 62 281 0.0 0.0 0.00 0.00 0.00 28 1012.9
20260503224554 63 270 0.0 0.0 0.00 0.00 0.00 28 1012.9
20260503224054 64 270 0.0 0.0 0.00 0.00 0.00 27 1012.9
20260503223554 65 274 0.0 0.0 0.00 0.00 0.00 27 1012.9
20260503223057 65 257 0.9 0.0 0.00 0.00 0.00 27 1012.9
20260503222552 65 243 0.9 0.0 0.00 0.00 0.00 27 1012.9
20260503222055 65 305 0.0 0.0 0.00 0.00 0.00 28 1012.8
20260503221555 64 196 0.0 0.0 0.00 0.00 0.00 28 1012.8
20260503221056 65 236 0.9 0.0 0.00 0.00 0.00 26 1012.8
20260503220552 65 285 0.9 0.0 0.00 0.00 0.00 27 1012.9
20260503220058 65 258 0.9 0.0 0.00 0.00 0.00 27 1012.9
20260503215551 64 302 2.6 0.0 0.00 0.00 0.00 27 1012.9
20260503215051 64 168 1.7 0.0 0.00 0.00 0.00 27 1012.9
20260503214550 64 296 1.7 0.0 0.00 0.00 0.00 27 1012.9
20260503214049 64 264 2.6 0.0 0.00 0.00 0.00 26 1012.9
20260503213549 64 256 3.5 0.0 0.00 0.00 0.00 27 1012.9
20260503213053 64 285 3.5 0.0 0.00 0.00 0.00 26 1012.9
20260503212549 64 260 2.6 0.0 0.00 0.00 0.00 27 1012.9
20260503212049 64 315 2.6 0.0 0.00 0.00 0.00 28 1013.0
20260503211551 63 318 2.6 0.0 0.00 0.00 0.00 27 1013.0
20260503211051 64 282 1.7 0.0 0.00 0.00 0.00 27 1013.0
20260503210548 64 326 1.7 0.0 0.00 0.00 0.00 27 1013.0
20260503210047 64 237 2.6 0.0 0.00 0.00 0.00 28 1013.0
20260503205546 63 229 3.5 0.0 0.00 0.00 0.00 27 1013.0
20260503205046 63 179 3.5 0.0 0.00 0.00 0.00 27 1013.0
20260503204547 63 289 3.5 0.0 0.00 0.00 0.00 27 1013.0
20260503204046 63 352 3.5 0.0 0.00 0.00 0.00 27 1013.0
20260503203546 63 320 3.5 0.0 0.00 0.00 0.00 27 1013.2
20260503203046 63 298 4.3 0.0 0.00 0.00 0.00 28 1013.2
20260503202548 63 322 4.3 0.0 0.00 0.00 0.00 27 1013.2
20260503202046 62 322 5.2 0.0 0.00 0.00 0.00 28 1013.3
20260503201544 62 265 4.3 0.0 0.00 0.00 0.00 27 1013.3
20260503201047 63 277 3.5 0.0 0.00 0.00 0.00 29 1013.3
20260503200545 63 296 3.5 0.0 0.00 0.00 0.00 28 1013.5
20260503200047 63 233 3.5 0.0 0.00 0.00 0.00 31 1013.5
20260503195544 63 243 2.6 0.0 0.00 0.00 0.00 29 1013.5
20260503195043 63 251 2.6 0.0 0.00 0.00 0.00 30 1013.8
20260503194548 63 230 1.7 0.0 0.00 0.00 0.00 30 1013.8
20260503194042 63 309 2.6 0.0 0.00 0.00 0.00 31 1013.8
20260503193542 62 287 3.5 0.0 0.00 0.00 0.00 30 1013.9
20260503193043 62 299 2.6 0.0 0.00 0.00 0.00 33 1013.9
20260503192540 62 298 3.5 0.0 0.00 0.00 0.00 32 1013.9
20260503192040 61 285 4.3 0.0 0.00 0.00 0.00 31 1014.3
20260503191541 61 299 3.5 0.0 0.00 0.00 0.00 30 1014.3
20260503191040 61 0 2.6 0.0 0.00 0.00 0.00 33 1014.3
20260503190540 61 243 2.6 0.0 0.00 0.00 0.00 33 1014.3
20260503190044 60 319 3.5 0.0 0.00 0.00 0.00 35 1014.3
20260503185538 60 263 3.5 0.0 0.00 0.00 0.00 30 1014.3
20260503185040 60 326 2.6 0.0 0.00 0.00 0.00 32 1014.5
20260503184549 60 298 4.3 0.0 0.00 0.00 0.00 34 1014.5
20260503184038 60 3 4.3 0.0 0.00 0.00 0.00 33 1014.5
20260503183538 60 316 3.5 0.0 0.00 0.00 0.00 31 1014.6
20260503183037 60 318 2.6 0.0 0.00 0.00 0.00 34 1014.6
20260503182543 60 304 1.7 0.0 0.00 0.00 0.00 34 1014.6
20260503182038 60 143 2.6 0.0 0.00 0.00 0.00 36 1014.8
20260503181537 59 356 2.6 0.0 0.00 0.00 0.00 35 1014.8
20260503181034 59 302 3.5 0.0 0.00 0.00 0.00 33 1014.8
20260503180533 59 323 2.6 0.0 0.00 0.00 0.00 33 1015.0
20260503180033 59 330 2.6 0.0 0.00 0.00 0.00 35 1015.0
20260503175531 58 326 2.6 0.0 0.00 0.00 0.00 36 1015.0
20260503175031 58 289 2.6 0.0 0.00 0.00 0.00 36 1015.0
20260503174541 58 281 3.5 0.0 0.00 0.00 0.00 37 1015.0
20260503174034 58 285 2.6 0.0 0.00 0.00 0.00 36 1015.0
20260503173530 58 208 1.7 0.0 0.00 0.00 0.00 35 1015.3
20260503173030 58 353 2.6 0.0 0.00 0.00 0.00 38 1015.3
20260503172529 58 323 2.6 0.0 0.00 0.00 0.00 35 1015.3
20260503172032 58 289 1.7 0.0 0.00 0.00 0.00 36 1015.1
20260503171528 58 260 3.5 0.0 0.00 0.00 0.00 36 1015.1
20260503171028 57 188 3.5 0.0 0.00 0.00 0.00 35 1015.1
20260503170530 57 1 3.5 0.0 0.00 0.00 0.00 36 1015.3
20260503151010 51 274 4.3 0.0 0.00 0.00 0.00 41 1015.8
20260503150510 50 64 4.3 0.0 0.00 0.00 0.00 40 1015.9
20260503131035 47 304 3.5 0.0 0.00 0.00 0.00 52 1016.1
20260503130535 47 267 3.5 0.0 0.00 0.00 0.00 52 1016.1
20260503110528 41 244 0.9 0.0 0.00 0.00 0.00 72 1014.9